Regional Weather Roundup
Issued by NWS

Home | Current Version | Previous Version | Text Only | Print | Product List | Glossary Off
Versions: 1 2 3 4 5 6 7 8 9 10 11 12 13 14 15 16 17 18 19 20 21 22 23 24 25 26 27 28 29 30 31 32 33 34 35 36 37 38 39 40 41 42 43 44 45 46 47 48 49 50

000
ASUS43 KLSX 291807
RWRMO

WEATHER SUMMARY FOR MISSOURI
NATIONAL WEATHER SERVICE SPRINGFIELD MO
100 PM CDT SUN MAR 29 2015

NOTE: "FAIR" INDICATES FEW OR NO CLOUDS BELOW 12,000 FEET WITH NO
       SIGNIFICANT WEATHER AND/OR OBSTRUCTIONS TO VISIBILITY.
       CURRENT SKY AND/OR WEATHER CONDITIONS ARE NOT AVAILABLE FOR
       CHILLICOTHE AND FARMINGTON.

MOZ001>031-035>038-043-044-053-054-291900-
...NORTHERN AND WESTERN MISSOURI...

CITY           SKY/WX    TMP DP  RH WIND       PRES   REMARKS
KANSAS CTY INT CLOUDY    61  44  53 W10       29.99S
6HR MIN TEMP:  40; 6HR MAX TEMP:  61; 6HR PCP: TRACE;

KANSAS C DTWN  CLOUDY    59  42  53 SW8       29.99F
6HR MIN TEMP:  41; 6HR MAX TEMP:  59; 6HR PCP: TRACE;

LEE`S SUMMIT   CLOUDY    55  41  59 SW14      30.00
6HR MIN TEMP:  37; 6HR MAX TEMP:  55;

ST JOSEPH      PTSUNNY   62  41  46 NW21      29.98R
6HR MIN TEMP:  42; 6HR MAX TEMP:  63; 6HR PCP: TRACE;

CHILLICOTHE      N/A     55  41  59 SW9G22    29.97S
6HR MIN TEMP:  39; 6HR MAX TEMP:  55; 6HR PCP:  0.01;

KIRKSVILLE     CLOUDY    51  39  63 SW15G24   29.94F
6HR MIN TEMP:  37; 6HR MAX TEMP:  52; 6HR PCP:  0.01;


$$
MOZ066>068-077>081-088>096-101>105-291900-
...SOUTHWEST MISSOURI...

CITY           SKY/WX    TMP DP  RH WIND       PRES   REMARKS
SPRINGFIELD    PTSUNNY   57  37  47 S14       30.02S
6HR MIN TEMP:  35; 6HR MAX TEMP:  57;

JOPLIN         PTSUNNY   62  42  47 SW14      30.02F
6HR MIN TEMP:  43; 6HR MAX TEMP:  62;


$$
MOZ032>034-039>042-045>050-055>058-069>072-291900-
...CENTRAL MISSOURI...

CITY           SKY/WX    TMP DP  RH WIND       PRES   REMARKS
COLUMBIA       PTSUNNY   55  35  47 SW15      30.00R
6HR MIN TEMP:  36; 6HR MAX TEMP:  57; 6HR PCP: TRACE;

JEFFERSON CITY PTSUNNY   55  33  43 SW10      29.99S
6HR MIN TEMP:  38; 6HR MAX TEMP:  55; 6HR PCP: TRACE;

ROLLA          MOSUNNY   57  36  45 S20       29.97F
6HR MIN TEMP:  35; 6HR MAX TEMP:  57;

SEDALIA        PTSUNNY   53  37  54 SW13G21   30.00F
6HR MIN TEMP:  39; 6HR MAX TEMP:  54; 6HR PCP:  0.01;

WHITEMAN AFB   CLOUDY    50  38  62 W12       29.99F
WARRENSBURG    CLOUDY    50  37  62 SW16G22   30.02R
OSAGE BEACH    MOSUNNY   57  36  44 SW14      30.01S

$$
MOZ051-052-059>065-291900-
...EAST CENTRAL MISSOURI...

CITY           SKY/WX    TMP DP  RH WIND       PRES   REMARKS
ST LOUIS INTL  PTSUNNY   58  29  33 S20G32    29.97F
6HR MIN TEMP:  36; 6HR MAX TEMP:  58;

SPIRIT OF STL  PTSUNNY   56  30  37 S12G21    29.96F
6HR MIN TEMP:  33; 6HR MAX TEMP:  56;

ST CHARLES     PTSUNNY   54  30  40 S21       29.96F
6HR MIN TEMP:  34; 6HR MAX TEMP:  55;


$$
MOZ072>076-082>087-097>100-106>115-291900-
...SOUTH CENTRAL AND SOUTHEAST MISSOURI...

CITY           SKY/WX    TMP DP  RH WIND       PRES   REMARKS
CAPE GIRARDEAU PTSUNNY   54  35  48 S21G30    30.13F
6HR MIN TEMP:  33; 6HR MAX TEMP:  54;

FARMINGTON     MOSUNNY   55  30  38 S16G25    30.10R
6HR MIN TEMP:  30; 6HR MAX TEMP:  55;

POPLAR BLUFF   CLOUDY    50  35  56 S12       30.14F
6HR MIN TEMP:  30; 6HR MAX TEMP:  51;

WEST PLAINS    MOSUNNY   50  37  61 S12       30.08F
6HR MIN TEMP:  34; 6HR MAX TEMP:  50;


$$



USA.gov is the U.S. government's official web portal to all federal, state and local government web resources and services.